Weather in Wronki

Poland     52°42′23″N   16°22′53″E
temp.,
°C
wind,
m/s
gust,
m/s
humid.,
%
clouds,
%
prec.,
mm/h
press.,
hPa
HPBL,
m
23 april, fri
fri2323:00+2w38800 0.0 1019176
02:00+1w49910 0.0 1020211
05:00+1w4109868 0.0 1020303
08:00+4w688791 0.0 1021462
11:00+5wnw6877100 0.0 1022811
14:00+7w587299 0.3 10221130
17:00+10nnw494783 1.0 10212370
20:00+5nnw3455100 1.0 102364
24 april, sat
sat2423:00+3wnw225420 0.0 102311
02:00+1w33655 0.0 102346
05:000wnw33877 0.0 102360
08:00+4w3475100 0.0 1023256
11:00+9wnw456299 0.3 10221288
14:00+10wnw565698 1.3 10221577
17:00+9wnw676081 0.4 10211159
20:00+5nnw495842 0.7 1023240
25 april, sun
sun2523:00+1nw34670 0.0 102470
02:00−1wnw34750 0.0 102465
05:00−1wnw37841 0.0 1024130
08:00+4wnw46635 0.0 1024333
11:00+9nw6931100 0.0 10232955
14:00+9nnw7932100 0.0 10232758
17:00+9nnw7114080 0.0 10232772
20:00+4nw37515 0.1 1023164
26 april, mon
mon2623:00+1wnw22635 0.0 102336
02:00−1w34780 0.0 102268
05:00−2w37840 0.0 1021125
08:00+4wnw46615 0.0 1021363
11:00+9nw353498 0.0 10202486
14:00+9nw564498 0.1 10191823
17:00+10nw363695 0.0 10172213
20:00+5n38533 0.0 1018166
27 april, tue
tue2723:00+1nne22640 0.0 101813
02:000se11700 0.0 101710
05:00−1sse11705 0.0 101610
08:00+4ese2253100 0.0 1016232
11:00+8se3342100 0.0 10151124
14:00+10ese3438100 0.0 10121429
17:00+10ese4543100 0.0 10111350
20:00+6e3762100 0.0 1010148